Погода в Старомунасиповом

Россия / Республика Башкортостан     53°13′44″N   57°34′37″E
В апреле 2022 года жителям России запретили посещать сайт meteo.paraplan.net по решению Генеральной прокуратуры. Аудитория сайта уменьшилась в 10 раз. Владельцы сайта не видят смысла в поддержке погодного сервера в таких условиях. Сайт будет закрыт в октябре.
темп.,
°C
ветер,
м/с
пор.,
м/с
влажн.,
%
обл.,
%
осадки,
мм/ч
давл.,
гПа
погр.,
м
4 октября, вт
вт423:00+4юв11675 0.0 103111
02:00+2юв11680 0.0 103210
05:00+1юв11660 0.0 103310
08:00+1вюв11594 0.0 103410
11:00+9юв24310 0.0 1033500
14:00+12ююв45240 0.0 1032945
17:00+11ююв3532100 0.0 1033483
20:00+4юв1150100 0.0 103510
5 октября, ср
ср523:00+2вюв115522 0.0 103510
02:00+2вюв1155100 0.0 103610
05:00+1вюв115581 0.0 103610
08:00+2вюв1152100 0.0 103515
11:00+8ююв2435100 0.0 1033350
14:00+10ююв2633100 0.0 1032689
17:00+11юв2437100 0.0 1030179
20:00+7юв2347100 0.0 103086
6 октября, чт
чт623:00+6юв1152100 0.1 103029
02:00+4вюв115686 0.1 102810
05:00+5вюв1150100 0.1 102712
08:00+4юв1147100 0.0 102512
11:00+11ю3831100 0.0 1022565
14:00+14ююз4827100 0.0 10201055
17:00+10ю41143100 0.1 1020764
20:00+8ююз31258100 0.1 1021809
7 октября, пт
пт723:00+8ююз3867100 0.1 1020484
02:00+7ю2489100 0.1 1020170
05:00+6ююз1397100 0.2 1019112
08:00+6з2587100 0.1 1019328
11:00+7зсз367454 0.3 1019891
14:00+8з455370 0.1 10181480
17:00+8зсз3559100 0.1 10191272
20:00+6зюз1667100 0.0 1020333
8 октября, сб
сб823:00+6зюз3865100 0.0 1020536
02:00+5зюз31071100 0.0 1020536
05:00+5зюз51182100 0.3 1019862
08:00+6з3989100 0.1 1020846
11:00+7з412816 0.5 10211117
14:00+8сз5117799 0.3 10221272
17:00+8сз4107310 0.3 10241333
20:00+4зсз21924 0.0 102621